星链-3575 (STARLINK-3575 )

导读 | 星芒AI

STARLINK-3575 是 SpaceX Starlink 项目中的一颗低轨通信卫星,属于该星座的众多组网卫星之一。该卫星旨在为全球用户提供高速互联网接入服务,特别关注偏远和网络覆盖不足的地区。它运行在约 550 公里的轨道高度,配备先进通信设备,支持高频段数据传输。STARLINK-3575 的发射和运行有助于提升 Starlink 网络的稳定性和覆盖范围,为用户带来更低延迟和更高带宽的互联网体验。

基本信息
目录编号:
51878
目录名称:
STARLINK-3575
国际标识:
2022-022AC
轨道中心:
EARTH
卫星名称:
星链-3575
卫星全名:
星链-3575 (STARLINK-3575 )
卫星状态:
在轨 (已飞行1342 天)
发射日期:
2022-03-03 UTC
国别 :
美国 (US)
星等 :
--
轨道信息
数据来源 国际轨道数据 AOE轨道数据
星历时间 2025-11-04T08:12:16+0800
15小时前
查看轨道信息
2025-10-31T20:00:00+0800
4天前
查看轨道信息
半长轴 6917.873km 6917.842km
偏心率 0.0001533 0.0001597
轨道倾角 53.217° 53.210°
近地点辐角 87.879° 84.313°
升交点赤经 213.327° 229.075°
平近点角 272.238° 287.857°
近地点 538.677km 538.602km
远地点 540.799km 540.812km
周期 95.437分钟 95.437分钟
每日圈数 15.088427 15.088528
详细信息
固有亮度:
5
最大亮度:
2.5
卫星平台:
Starlink v1.5
覆盖范围:
全球
运营商:
太空探索技术公司
运营商所在国:
美国
制造商(研发单位):
太空探索技术公司
制造商所在国:
美国
使用方式:
暂无
卫星简介
星链(Starlink)计划是由太空探索技术公司(SpaceX)提出的一个巨型低轨卫星互联网星座项目,计划在2019年至2024年间在太空搭建由约1.2万颗卫星组成的“星链”网络,其中1584颗将部署在地球上空550千米处的近地轨道,并从2020年开始工作。该卫星仍在工作。
2D轨道图
3D轨道图
轨道高度分析图
轨道倾角分析图
轨道综合分析图
查看轨道综合分析图